EN

Hourly Weather Labutino

Today, 6 August, Friday

Time Temperature Precipitation Wind Pressure Humidity
00:00 +16°C° 0 mm 2 mps 746 mmHg 83%
01:00 +16°C° 0 mm 2 mps 746 mmHg 83%
02:00 +16°C° 0 mm 2 mps 745 mmHg 83%
03:00 +16°C° 0 mm 1 mps 745 mmHg 83%
04:00 +16°C° 0 mm 2 mps 745 mmHg 83%
05:00 +16°C° 0 mm 2 mps 745 mmHg 82%
06:00 +16°C° 0 mm 2 mps 745 mmHg 81%
07:00 +18°C° 0 mm 2 mps 745 mmHg 76%
08:00 +19°C° 0 mm 2 mps 745 mmHg 72%
09:00 +21°C° 0 mm 3 mps 745 mmHg 67%
10:00 +21°C° 0.1 mm 3 mps 745 mmHg 69%
11:00 +21°C° 0.1 mm 3 mps 745 mmHg 71%
12:00 +22°C° 0.1 mm 3 mps 745 mmHg 74%
13:00 +21°C° 0.6 mm 2 mps 745 mmHg 80%
14:00 +20°C° 0.6 mm 2 mps 745 mmHg 86%
15:00 +20°C° 0.6 mm 1 mps 745 mmHg 92%
16:00 +19°C° 0.1 mm 2 mps 744 mmHg 90%
17:00 +20°C° 0.1 mm 2 mps 744 mmHg 89%
18:00 +20°C° 0.1 mm 3 mps 744 mmHg 87%
19:00 +19°C° 0 mm 3 mps 744 mmHg 89%
20:00 +19°C° 0 mm 4 mps 744 mmHg 90%
21:00 +18°C° 0 mm 4 mps 744 mmHg 92%
22:00 +18°C° 0.1 mm 4 mps 743 mmHg 92%
23:00 +18°C° 0.1 mm 4 mps 743 mmHg 93%

Tomorrow, 7 August, Saturday

Time Temperature Precipitation Wind Pressure Humidity
00:00 +18°C° 0.1 mm 4 mps 743 mmHg 93%
01:00 +17°C° 0.2 mm 4 mps 743 mmHg 94%
02:00 +17°C° 0.2 mm 3 mps 743 mmHg 96%
03:00 +17°C° 0.2 mm 3 mps 743 mmHg 97%
04:00 +17°C° 0.2 mm 3 mps 743 mmHg 97%
05:00 +17°C° 0.2 mm 3 mps 743 mmHg 97%
06:00 +17°C° 0.2 mm 3 mps 743 mmHg 96%
07:00 +18°C° 0.4 mm 4 mps 743 mmHg 92%
08:00 +20°C° 0.4 mm 4 mps 743 mmHg 87%
09:00 +21°C° 0.4 mm 4 mps 743 mmHg 82%
10:00 +23°C° 0.1 mm 4 mps 743 mmHg 73%
11:00 +26°C° 0.1 mm 4 mps 743 mmHg 63%
12:00 +28°C° 0.1 mm 5 mps 743 mmHg 54%
13:00 +29°C° 0 mm 5 mps 743 mmHg 52%
14:00 +29°C° 0 mm 5 mps 743 mmHg 50%
15:00 +30°C° 0 mm 5 mps 743 mmHg 48%
16:00 +29°C° 0 mm 5 mps 743 mmHg 51%
17:00 +29°C° 0 mm 4 mps 743 mmHg 54%
18:00 +28°C° 0 mm 4 mps 743 mmHg 57%
19:00 +26°C° 1 mm 4 mps 743 mmHg 69%
20:00 +22°C° 1 mm 4 mps 743 mmHg 80%
21:00 +20°C° 1 mm 3 mps 743 mmHg 91%
22:00 +20°C° 1 mm 3 mps 744 mmHg 92%
23:00 +19°C° 1 mm 2 mps 744 mmHg 93%

Day after tomorrow, 8 August, Sunday

Time Temperature Precipitation Wind Pressure Humidity
00:00 +19°C° 1 mm 2 mps 744 mmHg 94%
01:00 +19°C° 0.2 mm 2 mps 745 mmHg 95%
02:00 +19°C° 0.2 mm 2 mps 745 mmHg 95%
03:00 +18°C° 0.2 mm 2 mps 745 mmHg 96%
04:00 +18°C° 0.1 mm 2 mps 745 mmHg 95%
05:00 +18°C° 0.1 mm 2 mps 745 mmHg 94%
06:00 +18°C° 0.1 mm 1 mps 745 mmHg 93%
07:00 +18°C° 0 mm 2 mps 746 mmHg 87%
08:00 +19°C° 0 mm 2 mps 746 mmHg 81%
09:00 +20°C° 0 mm 2 mps 746 mmHg 74%
10:00 +21°C° 0 mm 2 mps 747 mmHg 69%
11:00 +23°C° 0 mm 2 mps 747 mmHg 64%
12:00 +24°C° 0 mm 2 mps 747 mmHg 59%
13:00 +25°C° 0 mm 2 mps 747 mmHg 58%
14:00 +25°C° 0 mm 3 mps 748 mmHg 56%
15:00 +26°C° 0 mm 3 mps 748 mmHg 54%
16:00 +26°C° 0 mm 2 mps 748 mmHg 55%
17:00 +26°C° 0 mm 2 mps 748 mmHg 56%
18:00 +26°C° 0 mm 2 mps 748 mmHg 57%
19:00 +25°C° 0 mm 2 mps 748 mmHg 64%
20:00 +23°C° 0 mm 1 mps 749 mmHg 70%
21:00 +21°C° 0 mm 1 mps 749 mmHg 77%
22:00 +21°C° 0 mm 1 mps 749 mmHg 79%
23:00 +20°C° 0 mm 1 mps 749 mmHg 81%

9 August, Monday

Time Temperature Precipitation Wind Pressure Humidity
00:00 +18°C° 0 mm 0 mps 749 mmHg 83%
01:00 +17°C° 0 mm 0 mps 750 mmHg 84%
02:00 +17°C° 0 mm 0 mps 750 mmHg 86%
03:00 +17°C° 0 mm 0 mps 750 mmHg 87%
04:00 +17°C° 0 mm 0 mps 750 mmHg 87%
05:00 +17°C° 0 mm 0 mps 750 mmHg 86%
06:00 +17°C° 0 mm 0 mps 750 mmHg 86%
07:00 +19°C° 0 mm 0 mps 750 mmHg 79%
08:00 +23°C° 0 mm 1 mps 750 mmHg 71%
09:00 +24°C° 0 mm 1 mps 750 mmHg 64%
10:00 +26°C° 0 mm 1 mps 750 mmHg 59%
11:00 +27°C° 0 mm 1 mps 750 mmHg 53%
12:00 +28°C° 0 mm 2 mps 750 mmHg 48%
13:00 +29°C° 0 mm 2 mps 750 mmHg 46%
14:00 +29°C° 0 mm 2 mps 750 mmHg 44%
15:00 +30°C° 0 mm 1 mps 750 mmHg 41%
16:00 +30°C° 0 mm 1 mps 750 mmHg 45%
17:00 +29°C° 0 mm 1 mps 750 mmHg 48%
18:00 +29°C° 0 mm 1 mps 749 mmHg 51%
19:00 +27°C° 0 mm 1 mps 749 mmHg 54%
20:00 +26°C° 0 mm 1 mps 750 mmHg 58%
21:00 +25°C° 0 mm 1 mps 750 mmHg 61%
22:00 +24°C° 0 mm 1 mps 750 mmHg 63%
23:00 +24°C° 0 mm 1 mps 749 mmHg 64%

10 August, Tuesday

Time Temperature Precipitation Wind Pressure Humidity
00:00 +23°C° 0 mm 1 mps 749 mmHg 66%
01:00 +23°C° 0.1 mm 1 mps 749 mmHg 69%
02:00 +22°C° 0.1 mm 1 mps 749 mmHg 72%
03:00 +22°C° 0.1 mm 1 mps 749 mmHg 75%
04:00 +21°C° 0.3 mm 1 mps 749 mmHg 77%
05:00 +21°C° 0.3 mm 1 mps 749 mmHg 80%
06:00 +21°C° 0.3 mm 1 mps 749 mmHg 83%
07:00 +22°C° 0 mm 1 mps 749 mmHg 78%
08:00 +22°C° 0 mm 0 mps 749 mmHg 73%
09:00 +23°C° 0 mm 0 mps 749 mmHg 68%
10:00 +26°C° 0 mm 1 mps 749 mmHg 62%
11:00 +27°C° 0 mm 1 mps 749 mmHg 57%
12:00 +29°C° 0 mm 2 mps 749 mmHg 51%
13:00 +29°C° 0 mm 3 mps 749 mmHg 50%
14:00 +29°C° 0 mm 3 mps 749 mmHg 48%
15:00 +29°C° 0 mm 4 mps 748 mmHg 47%
16:00 +28°C° 0 mm 3 mps 748 mmHg 51%
17:00 +27°C° 0 mm 3 mps 748 mmHg 54%
18:00 +26°C° 0 mm 3 mps 748 mmHg 58%
19:00 +25°C° 0.1 mm 3 mps 748 mmHg 62%
20:00 +24°C° 0.1 mm 2 mps 748 mmHg 66%
21:00 +23°C° 0.1 mm 2 mps 748 mmHg 69%
22:00 +21°C° 0 mm 2 mps 748 mmHg 71%
23:00 +21°C° 0 mm 2 mps 748 mmHg 72%

11 August, Wednesday

Time Temperature Precipitation Wind Pressure Humidity
00:00 +20°C° 0 mm 2 mps 748 mmHg 74%
01:00 +20°C° 0 mm 2 mps 748 mmHg 76%
02:00 +20°C° 0 mm 1 mps 748 mmHg 77%
03:00 +20°C° 0 mm 1 mps 748 mmHg 79%
04:00 +20°C° 0 mm 1 mps 748 mmHg 79%
05:00 +20°C° 0 mm 1 mps 748 mmHg 80%
06:00 +20°C° 0 mm 1 mps 748 mmHg 80%
07:00 +22°C° 0 mm 1 mps 748 mmHg 74%
08:00 +24°C° 0 mm 1 mps 748 mmHg 68%
09:00 +25°C° 0 mm 2 mps 748 mmHg 61%
10:00 +27°C° 0 mm 2 mps 747 mmHg 57%
11:00 +28°C° 0 mm 2 mps 747 mmHg 53%
12:00 +29°C° 0 mm 2 mps 747 mmHg 49%
13:00 +29°C° 0 mm 3 mps 747 mmHg 48%
14:00 +29°C° 0 mm 3 mps 747 mmHg 46%
15:00 +30°C° 0 mm 3 mps 746 mmHg 45%
16:00 +29°C° 0 mm 3 mps 746 mmHg 50%
17:00 +28°C° 0 mm 3 mps 746 mmHg 54%
18:00 +27°C° 0 mm 3 mps 746 mmHg 58%
19:00 +25°C° 0.2 mm 3 mps 746 mmHg 66%
20:00 +24°C° 0.2 mm 3 mps 746 mmHg 73%
21:00 +21°C° 0.2 mm 3 mps 746 mmHg 81%
22:00 +21°C° 0.5 mm 3 mps 746 mmHg 85%
23:00 +20°C° 0.5 mm 3 mps 746 mmHg 89%
Show more